WESTFORD NEEDLES, 3257

Orbit data source: Space-Track

WESTFORD NEEDLES, 3257 is space debris in LEO originally from a launch on Thu, 09 May 1963 UTC launched from the Air Force Western Test Range (AFWTR). Debris objects in space refer to the collection of defunct objects orbiting the Earth. Examples of debris include non-operational satellites, rocket bodies, and fragments generated from explosions, collisions, or faulty payload assembly.

Loading next visibility...
Identifier
3257, 1963-014BX
Orbit
LEO
Last TLE update
3 months ago
Origin
Manufacturer
Unknown
Mission
Spacecraft
Bus & Motor
Unknown
Mass
Unknown
Launch date (UTC)
Icon of a cake. It is the launch day of the satellite!1963-05-09 (62 years ago)
Launch vehicle
Unknown
Launch site
Air Force Western Test Range (AFWTR)
Object type
Payload
Rocket body
Debris
Shape & HBR
Unknown
Radar Cross Section
Medium (>0.1 m² and <1 m²)

Expand to show TLE details & history

TLE from 3 months ago
0 WESTFORD NEEDLES
1 03257U 63014BX  25032.39075703  .00000018  00000-0  71117-2 0  9995
2 03257  87.3557 195.4705 0164943 297.2053  61.2077  8.65167873 16618
Epoch: 2025-02-01T09:22Z
Definitive object data (Epoch: 2025-02-01T09:22:41.407Z)
Latitude
0.00002°
Longitude
-77.04181°
Altitude
3,569.625 km
Speed
6.355 km/s
True Right ascension
13h 01m 52s
True Declination
0° 00' 00"
Sunlit
Object was in daylight at TLE epoch
Visualization TLE readout
Latitude
49.37221°
Longitude
90.69509°
Altitude
3,588.267 km
Speed
6.349 km/s
Apparent Right ascension
23h 57m 29s
Apparent Declination
65° 11' 48"
Sunlit
Object is in daylight
Visualization observer readout
Local Sidereal Time
00:17:50
Azimuth
355.033° N
Elevation
64.55°
Doppler factor
1
Orbital elements
Apogee altitude
3,808.063 km
Perigee altitude
3,477.487 km
Semi-major axis
10,020.912 km
Eccentricity
0.0164943
Inclination
87.3557°
RAAN
195.4705°
Arg. of periapsis
297.2053°
True anomaly
62.88051°
Mean anomaly
61.2077°
Eccentric anomaly
62.04246°
Mean motion
2.16363 °/min
BSTAR
0.0071117
Orbital period
166.39 mins
Loading maneuver chart data...
Loading SW <> Apogee altitude chart data...

WESTFORD NEEDLES Visibility forecast

Observer location: undefined°, undefined°

Span
Click to sort rows by Start time (UTC) header in descending order
Start Az.
Max El. time (UTC)
Max El. Az.
Max El.
End time (UTC)
End Az.
22 mins2025-05-09 16:07:25.272Z355.001° N2025-05-09 16:11:25.272Z300.001° NW44.945°2025-05-09 16:29:25.272Z185.875° SSW
22 mins2025-05-09 18:43:25.272Z339.57° N2025-05-09 18:53:25.272Z303.841° NW20.543°2025-05-09 19:05:25.272Z260.169° W
32 mins2025-05-10 02:17:25.272Z129.356° SE2025-05-10 02:32:25.272Z72.725° E33.234°2025-05-10 02:49:25.272Z9.746° NNE
37 mins2025-05-10 04:59:25.272Z198.624° SSW2025-05-10 05:17:25.272Z273.728° WNW41.498°2025-05-10 05:36:25.272Z358.172° N
13 mins2025-05-10 08:06:25.272Z296.228° NW2025-05-10 08:12:25.272Z315.706° NNW12.385°2025-05-10 08:19:25.272Z338.312° N
32 mins2025-05-10 14:06:25.272Z6.758° NNE2025-05-10 14:22:25.272Z73.569° E34.649°2025-05-10 14:38:25.272Z142° SSE
|